Location: Buckeye Ditch
(40.9104°N, 122.9517°W)
Time: 19:46:44
(UTC+00:00)

Vanguard 1 - Pass Details

Date: 19 May 2025
Orbit: 649 x 3822 km, 34.3° (Epoch: 15 June)

Event Time Altitude Azimuth Distance (km) Brightness Sun altitude
Rises 03:57:43 0° 260° (W) 6,709 15.1 -6.0°
Reaches altitude 10° 04:02:56 10° 257° (WSW) 5,196 14.4 -6.8°
Maximum altitude 04:15:56 59° 183° (S) 1,748 11.2 -8.8°
Drops below altitude 10° 04:22:56 10° 106° (ESE) 2,902 11.9 -9.9°
Enters shadow 04:23:01 10° 105° (ESE) 2,933 11.9 -9.9°
